TimeEST,TemperatureF,Dew PointF,Humidity,Sea Level PressureIn,VisibilityMPH,Wind Direction,Wind SpeedMPH,Gust SpeedMPH,PrecipitationIn,Events,Conditions,WindDirDegrees,DateUTC
12:53 AM,-4.0,-9.9,76,30.30,10.0,SW,8.1,-,N/A,,Clear,230,2014-01-28 05:53:00
1:53 AM,-4.0,-9.9,76,30.30,10.0,WSW,9.2,-,N/A,,Clear,240,2014-01-28 06:53:00
2:53 AM,-4.0,-9.9,76,30.31,10.0,SW,10.4,-,N/A,,Clear,220,2014-01-28 07:53:00
3:53 AM,-4.0,-9.9,76,30.29,10.0,WSW,9.2,-,N/A,,Clear,240,2014-01-28 08:53:00
4:53 AM,-4.0,-9.9,76,30.29,10.0,SW,8.1,-,N/A,,Clear,220,2014-01-28 09:53:00
5:53 AM,-4.0,-9.0,79,30.29,10.0,SW,13.8,-,N/A,,Clear,220,2014-01-28 10:53:00
6:53 AM,-5.1,-9.0,83,30.30,10.0,SSW,9.2,-,N/A,,Clear,210,2014-01-28 11:53:00
7:53 AM,-5.1,-9.9,80,30.30,7.0,SSW,9.2,-,N/A,,Clear,210,2014-01-28 12:53:00
8:25 AM,-4.0,-9.4,78,30.24,9.0,SSW,9.2,-,N/A,,Clear,210,2014-01-28 13:25:00
8:53 AM,-4.0,-9.0,79,30.31,10.0,SW,11.5,-,N/A,,Clear,220,2014-01-28 13:53:00
9:53 AM,-2.0,-8.0,76,30.31,10.0,SW,12.7,-,N/A,,Clear,230,2014-01-28 14:53:00
10:53 AM,1.0,-6.0,72,30.31,10.0,WSW,15.0,-,N/A,,Clear,240,2014-01-28 15:53:00
11:53 AM,3.9,-4.0,70,30.30,10.0,SW,18.4,-,N/A,,Clear,230,2014-01-28 16:53:00
12:53 PM,6.1,-2.0,69,30.25,10.0,SW,21.9,31.1,N/A,,Mostly Cloudy,230,2014-01-28 17:53:00
1:44 PM,6.8,-2.2,67,30.17,10.0,SW,20.7,26.5,N/A,,Partly Cloudy,230,2014-01-28 18:44:00
1:53 PM,7.0,-2.0,67,30.22,10.0,SW,21.9,27.6,N/A,,Partly Cloudy,230,2014-01-28 18:53:00
2:53 PM,9.0,-0.0,67,30.19,10.0,SW,19.6,-,N/A,,Partly Cloudy,230,2014-01-28 19:53:00
3:53 PM,10.0,-0.9,61,30.19,10.0,WSW,15.0,25.3,N/A,,Clear,240,2014-01-28 20:53:00
4:53 PM,8.1,-2.9,61,30.18,10.0,WSW,18.4,25.3,N/A,,Partly Cloudy,240,2014-01-28 21:53:00
5:51 PM,8.6,-0.4,67,30.12,5.0,SW,17.3,-,N/A,,Haze,230,2014-01-28 22:51:00
5:53 PM,8.1,-0.0,70,30.18,6.0,SW,18.4,-,N/A,,Haze,230,2014-01-28 22:53:00
6:18 PM,6.8,-0.4,72,30.12,10.0,SW,17.3,-,N/A,,Overcast,230,2014-01-28 23:18:00
6:53 PM,7.0,-2.0,67,30.17,10.0,SW,19.6,28.8,N/A,,Overcast,230,2014-01-28 23:53:00
7:53 PM,7.0,-0.9,70,30.17,10.0,SW,15.0,-,N/A,,Overcast,220,2014-01-29 00:53:00
8:53 PM,6.1,-0.9,73,30.14,5.0,SSW,15.0,24.2,N/A,,Haze,210,2014-01-29 01:53:00
9:10 PM,5.0,-2.2,72,30.08,5.0,SW,20.7,28.8,N/A,Snow,Blowing Snow,220,2014-01-29 02:10:00
9:53 PM,3.9,-2.9,73,30.13,9.0,SW,21.9,28.8,0.00,,Overcast,220,2014-01-29 02:53:00
10:34 PM,3.2,-4.0,72,30.06,8.0,SW,19.6,28.8,N/A,,Scattered Clouds,220,2014-01-29 03:34:00
10:53 PM,3.0,-5.1,69,30.12,9.0,SW,20.7,28.8,N/A,,Clear,220,2014-01-29 03:53:00
11:53 PM,3.0,-5.1,69,30.11,10.0,SSW,15.0,24.2,N/A,,Mostly Cloudy,210,2014-01-29 04:53:00